Location: Newark
(43.0117°N, 7.5572°W)
Time: 20:47:12
(UTC+00:00)

X-37B - Pass Details

Date: 07 October 2020
Orbit: 382 x 392 km, 45.0° (Epoch: 15 October)

Event Time Altitude Azimuth Distance (km) Brightness Sun altitude
Rises 20:38:30 0° 281° (W) 2,265 5.6 -29.3°
Reaches altitude 10° 20:40:36 10° 285° (WNW) 1,408 4.3 -29.7°
Enters shadow 20:40:56 13° 286° (WNW) 1,268 4.0 -29.7°
